Вернуться в каталог

CZ-2C DEB

АктивенPO
NORAD 39626·DEBRIS·🇨🇳 China

Запущен Mar 31, 2014 с Jiuquan Satellite Launch Center

Loading…

Ближайшие Пролёты (ближайшие 24 часа)

TLE

СвежийSource: Space-Track

Эпоха: Sep 14, 2026, 10:05 UTC

1 39626U 14014C   26257.42072959  .00013388  00000-0  10080-2 0  9990
2 39626  98.2369 245.7897 0042700  27.3154 333.0301 15.01914382663554

Отслеживайте CZ-2C DEB в реальном времени с AllMySat

Download on the App Store